THOR ABLESTAR DEB, 334

Orbit data source: Space-Track

THOR ABLESTAR DEB, 334 is space debris in LEO originally from a launch on Thu, 29 Jun 1961 UTC launched from the Air Force Eastern Test Range (AFETR). Debris objects in space refer to the collection of defunct objects orbiting the Earth. Examples of debris include non-operational satellites, rocket bodies, and fragments generated from explosions, collisions, or faulty payload assembly.

Loading next visibility...
Identifier
334, 1961-015DL
Orbit
LEO
Country
Flag of USUS
Related business
Manufacturer
Unknown
Mission
Spacecraft
Bus & Motor
Unknown
Mass
Unknown
Launch date (UTC)
1961-06-29 (65 years ago)
Launch vehicle
Unknown
Launch site
Air Force Eastern Test Range (AFETR)
Object type
Payload
Rocket body
Debris
Shape & HBR
Unknown shape, 0.1 m
Radar Cross Section
Small (<0.1 m²)

Expand to show TLE details & history
Last TLE update: 7 hours ago

TLE from 7 hours ago
0 THOR ABLESTAR DEB
1 00334U 61015DL  26038.28605759  .00000083  00000-0  12204-3 0  9997
2 00334  66.9243 140.0599 0081256 200.6262 159.1533 13.91724898277982
Epoch: 2026-02-07T06:51Z
TLE epoch observation values (Epoch: 2026-02-07T06:51:55.375Z)
Latitude
-0.00003°
Longitude
-100.3326°
Altitude
980.184 km
Speed
7.334 km/s
True Right ascension
09h 20m 14s
True Declination
0° 00' 00"
Sunlit
Object was in full shadow at epoch
Visualization orbit readout
Latitude
Unknown
Longitude
Unknown
Altitude
Unknown
Speed
Unknown
Apparent Right ascension
Unknown
Apparent Declination
Unknown
Sunlit
N/A
Visualization observer readout
Local Sidereal Time
16:01:10
Azimuth
Unknown
Elevation
Unknown
Doppler factor
Unknown
Orbital elements
Apogee altitude
980.28 km
Perigee altitude
861.661 km
Semi-major axis
7,299.108 km
Eccentricity
0.00813
Inclination
66.9243°
RAAN
140.0599°
Arg. of periapsis
200.6262°
True anomaly
159.48154°
Mean anomaly
159.1533°
Eccentric anomaly
159.31773°
Mean motion
3.48047 °/min
Orbital period
103.43 mins
BSTAR
0.00012204
Loading maneuver chart data...
Computing Atmospheric mass density...
Loading historical data...
Loading historical data...
Loading historical data...
Loading historical data...
Loading historical data...
Loading historical data...
Loading historical data...

Documentation

Showing up to 5 results
|